When you browse on this site, cookies collect data to enhance your experience and personalize the content and advertising you see.
Visit our Privacy Policy to learn more. By continuing to use the site, you agree to this use of cookies and data.
  • In Portugal
  • List of Countries
  • For 7 days
  • Water Temperature
  • Weather Map
  • Weather Widgets
  • user-avatar
    Login

    Hourly Weather Lubango

    Today, 15 October, Tuesday

    Time Temperature Precipitation Wind Pressure Humidity
    00:00 +16°C° 0.1 mm 0 mps 609 mmHg 84%
    01:00 +18°C° 0 mm 1 mps 609 mmHg 86%
    02:00 +18°C° 0.2 mm 1 mps 609 mmHg 84%
    03:00 +18°C° 0.2 mm 1 mps 608 mmHg 83%
    04:00 +16°C° 0.2 mm 0 mps 608 mmHg 81%
    05:00 +17°C° 0 mm 0 mps 608 mmHg 78%
    06:00 +19°C° 0 mm 1 mps 609 mmHg 74%
    07:00 +20°C° 0 mm 1 mps 610 mmHg 69%
    08:00 +21°C° 0 mm 1 mps 610 mmHg 65%
    09:00 +22°C° 0 mm 1 mps 610 mmHg 61%
    10:00 +23°C° 0 mm 2 mps 610 mmHg 57%
    11:00 +25°C° 0.3 mm 2 mps 610 mmHg 51%
    12:00 +27°C° 0.3 mm 2 mps 610 mmHg 45%
    13:00 +28°C° 0.3 mm 2 mps 611 mmHg 39%
    14:00 +26°C° 0.6 mm 2 mps 609 mmHg 46%
    15:00 +24°C° 0.6 mm 3 mps 608 mmHg 54%
    16:00 +21°C° 0.6 mm 3 mps 607 mmHg 62%
    17:00 +20°C° 1.6 mm 3 mps 607 mmHg 67%
    18:00 +19°C° 1.6 mm 3 mps 607 mmHg 73%
    19:00 +18°C° 1.6 mm 3 mps 608 mmHg 79%
    20:00 +18°C° 1.2 mm 3 mps 608 mmHg 79%
    21:00 +18°C° 1.2 mm 3 mps 608 mmHg 78%
    22:00 +18°C° 1.2 mm 3 mps 609 mmHg 78%
    23:00 +18°C° 0 mm 2 mps 609 mmHg 78%

    Tomorrow, 16 October, Wednesday

    Time Temperature Precipitation Wind Pressure Humidity
    00:00 +18°C° 0 mm 2 mps 609 mmHg 77%
    01:00 +19°C° 0 mm 1 mps 608 mmHg 77%
    02:00 +18°C° 0.1 mm 1 mps 608 mmHg 80%
    03:00 +18°C° 0.1 mm 1 mps 608 mmHg 84%
    04:00 +18°C° 0.1 mm 1 mps 608 mmHg 87%
    05:00 +18°C° 0.1 mm 1 mps 608 mmHg 83%
    06:00 +19°C° 0.1 mm 1 mps 609 mmHg 79%
    07:00 +19°C° 0.1 mm 1 mps 609 mmHg 75%
    08:00 +21°C° 0.1 mm 1 mps 610 mmHg 67%
    09:00 +23°C° 0.1 mm 1 mps 611 mmHg 59%
    10:00 +25°C° 0.1 mm 1 mps 611 mmHg 51%
    11:00 +27°C° 0 mm 2 mps 611 mmHg 46%
    12:00 +28°C° 0 mm 2 mps 611 mmHg 41%
    13:00 +29°C° 0 mm 2 mps 611 mmHg 36%
    14:00 +28°C° 0.3 mm 2 mps 610 mmHg 40%
    15:00 +27°C° 0.3 mm 2 mps 609 mmHg 44%
    16:00 +26°C° 0.3 mm 2 mps 608 mmHg 49%
    17:00 +24°C° 0.2 mm 2 mps 608 mmHg 54%
    18:00 +23°C° 0.2 mm 2 mps 608 mmHg 60%
    19:00 +21°C° 0.2 mm 2 mps 608 mmHg 66%
    20:00 +21°C° 0 mm 1 mps 608 mmHg 67%
    21:00 +21°C° 0 mm 1 mps 608 mmHg 69%
    22:00 +18°C° 0 mm 0 mps 608 mmHg 71%
    23:00 +18°C° 0 mm 0 mps 608 mmHg 71%

    Day after tomorrow, 17 October, Thursday

    Time Temperature Precipitation Wind Pressure Humidity
    00:00 +18°C° 0 mm 0 mps 608 mmHg 71%
    01:00 +17°C° 0 mm 0 mps 608 mmHg 70%
    02:00 +17°C° 0 mm 0 mps 608 mmHg 72%
    03:00 +17°C° 0 mm 0 mps 607 mmHg 74%
    04:00 +16°C° 0 mm 0 mps 607 mmHg 76%
    05:00 +17°C° 0 mm 0 mps 608 mmHg 72%
    06:00 +18°C° 0 mm 0 mps 609 mmHg 68%
    07:00 +19°C° 0 mm 0 mps 610 mmHg 64%
    08:00 +23°C° 0 mm 1 mps 610 mmHg 56%
    09:00 +25°C° 0 mm 1 mps 611 mmHg 48%
    10:00 +27°C° 0 mm 2 mps 611 mmHg 40%
    11:00 +28°C° 0 mm 2 mps 611 mmHg 37%
    12:00 +29°C° 0 mm 2 mps 611 mmHg 33%
    13:00 +30°C° 0 mm 3 mps 611 mmHg 30%
    14:00 +29°C° 0.1 mm 3 mps 610 mmHg 33%
    15:00 +28°C° 0.1 mm 3 mps 609 mmHg 37%
    16:00 +27°C° 0.1 mm 3 mps 608 mmHg 41%
    17:00 +25°C° 0.1 mm 3 mps 608 mmHg 50%
    18:00 +23°C° 0.1 mm 2 mps 608 mmHg 59%
    19:00 +20°C° 0.1 mm 2 mps 608 mmHg 68%
    20:00 +19°C° 0 mm 2 mps 608 mmHg 72%
    21:00 +19°C° 0 mm 1 mps 609 mmHg 75%
    22:00 +18°C° 0 mm 1 mps 609 mmHg 78%
    23:00 +18°C° 0 mm 1 mps 609 mmHg 79%

    18 October, Friday

    Time Temperature Precipitation Wind Pressure Humidity
    00:00 +18°C° 0 mm 1 mps 608 mmHg 81%
    01:00 +16°C° 0 mm 1 mps 608 mmHg 82%
    02:00 +16°C° 0 mm 1 mps 608 mmHg 81%
    03:00 +15°C° 0 mm 1 mps 608 mmHg 81%
    04:00 +15°C° 0 mm 1 mps 607 mmHg 81%
    05:00 +16°C° 0 mm 1 mps 608 mmHg 75%
    06:00 +18°C° 0 mm 1 mps 608 mmHg 69%
    07:00 +19°C° 0 mm 1 mps 609 mmHg 63%
    08:00 +21°C° 0 mm 1 mps 610 mmHg 54%
    09:00 +23°C° 0 mm 2 mps 610 mmHg 45%
    10:00 +26°C° 0 mm 2 mps 611 mmHg 37%
    11:00 +27°C° 0 mm 2 mps 611 mmHg 35%
    12:00 +28°C° 0 mm 2 mps 611 mmHg 32%
    13:00 +28°C° 0 mm 2 mps 610 mmHg 30%
    14:00 +28°C° 0 mm 3 mps 610 mmHg 33%
    15:00 +27°C° 0 mm 3 mps 609 mmHg 37%
    16:00 +26°C° 0 mm 4 mps 608 mmHg 41%
    17:00 +24°C° 0 mm 3 mps 608 mmHg 49%
    18:00 +21°C° 0 mm 2 mps 608 mmHg 57%
    19:00 +19°C° 0 mm 2 mps 608 mmHg 66%
    20:00 +19°C° 0 mm 1 mps 608 mmHg 67%
    21:00 +19°C° 0 mm 1 mps 608 mmHg 68%
    22:00 +19°C° 0 mm 1 mps 609 mmHg 69%
    23:00 +18°C° 0 mm 1 mps 608 mmHg 71%

    19 October, Saturday

    Time Temperature Precipitation Wind Pressure Humidity
    00:00 +16°C° 0 mm 1 mps 608 mmHg 72%
    01:00 +16°C° 0 mm 1 mps 607 mmHg 74%
    02:00 +14°C° 0 mm 0 mps 607 mmHg 73%
    03:00 +14°C° 0 mm 0 mps 607 mmHg 72%
    04:00 +14°C° 0 mm 0 mps 607 mmHg 72%
    05:00 +15°C° 0 mm 0 mps 607 mmHg 68%
    06:00 +16°C° 0 mm 0 mps 608 mmHg 64%
    07:00 +18°C° 0 mm 1 mps 608 mmHg 60%
    08:00 +21°C° 0 mm 1 mps 609 mmHg 51%
    09:00 +24°C° 0 mm 2 mps 610 mmHg 42%
    10:00 +26°C° 0 mm 2 mps 611 mmHg 32%
    11:00 +27°C° 0 mm 2 mps 611 mmHg 29%
    12:00 +29°C° 0 mm 2 mps 611 mmHg 26%
    13:00 +30°C° 0 mm 3 mps 610 mmHg 23%
    14:00 +29°C° 0 mm 3 mps 610 mmHg 26%
    15:00 +28°C° 0 mm 3 mps 609 mmHg 29%
    16:00 +27°C° 0 mm 3 mps 608 mmHg 31%
    17:00 +25°C° 0 mm 3 mps 608 mmHg 39%
    18:00 +23°C° 0 mm 2 mps 608 mmHg 46%
    19:00 +21°C° 0 mm 1 mps 607 mmHg 53%
    20:00 +21°C° 0 mm 1 mps 608 mmHg 55%
    21:00 +20°C° 0 mm 1 mps 608 mmHg 57%
    22:00 +17°C° 0 mm 0 mps 608 mmHg 59%
    23:00 +17°C° 0 mm 0 mps 608 mmHg 59%

    20 October, Sunday

    Time Temperature Precipitation Wind Pressure Humidity
    00:00 +17°C° 0 mm 0 mps 608 mmHg 60%
    01:00 +16°C° 0 mm 0 mps 607 mmHg 61%
    02:00 +18°C° 0 mm 1 mps 607 mmHg 61%
    03:00 +16°C° 0 mm 1 mps 607 mmHg 61%
    04:00 +16°C° 0 mm 1 mps 607 mmHg 62%
    05:00 +18°C° 0 mm 1 mps 607 mmHg 58%
    06:00 +19°C° 0 mm 1 mps 608 mmHg 55%
    07:00 +20°C° 0 mm 1 mps 609 mmHg 52%
    08:00 +22°C° 0 mm 1 mps 610 mmHg 43%
    09:00 +25°C° 0 mm 1 mps 611 mmHg 35%
    10:00 +28°C° 0 mm 2 mps 611 mmHg 26%
    11:00 +29°C° 0 mm 2 mps 611 mmHg 24%
    12:00 +30°C° 0 mm 3 mps 611 mmHg 22%
    13:00 +31°C° 0 mm 3 mps 611 mmHg 20%
    14:00 +30°C° 0 mm 3 mps 610 mmHg 24%
    15:00 +29°C° 0 mm 3 mps 609 mmHg 28%
    16:00 +28°C° 0 mm 3 mps 608 mmHg 31%
    17:00 +26°C° 0 mm 3 mps 608 mmHg 40%
    18:00 +24°C° 0 mm 2 mps 608 mmHg 48%
    19:00 +20°C° 0 mm 2 mps 608 mmHg 57%
    20:00 +21°C° 0 mm 1 mps 608 mmHg 58%
    21:00 +20°C° 0 mm 1 mps 608 mmHg 60%
    22:00 +20°C° 0 mm 1 mps 609 mmHg 61%
    23:00 +19°C° 0 mm 1 mps 608 mmHg 63%
    Show more